Клопотива

Румыния     45°29′43″N   22°49′16″E
темп.,
°C
ветер,
м/с
пор.,
м/с
влажн.,
%
обл.,
%
осадки,
мм/ч
давл.,
гПа
погр.,
м
6 мая, чт
чт600:00+8з3594100 0.8 1009210
03:00+8зсз2498100 9.5 1011316
06:00+6з229837 0.4 101384
09:00+7зсз2387100 0.4 1016484
12:00+11сз23517 0.0 10151296
15:00+13сз3343100 0.0 10141328
18:00+13сз234689 0.0 1014793
21:00+7ю117699 0.0 101514
7 мая, пт
пт700:00+8зюз1173100 0.2 101522
03:00+8ююв1189100 0.8 101335
06:00+7ююз2291100 0.4 101244
09:00+11юз2383100 0.4 1012196
12:00+13ююз286296 0.1 10111466
15:00+15з2858100 0.1 10101778
18:00+12юз1384100 0.4 1010114
21:00+9юз229293 0.5 101146
8 мая, сб
сб800:00+8ссз2398100 0.3 1013255
03:00+5всв1297100 2.0 1017129
06:00+4зсз1197100 0.8 1018110
09:00+5зсз2383100 0.8 1020745
12:00+8зсз235416 0.1 10201352
15:00+11сз34373 0.1 10181938
18:00+10сз33398 0.0 10191787
21:00+3юз21672 0.0 102315
9 мая, вс
вс900:00+2ю22690 0.0 102524
03:00+1ю22655 0.0 102620
06:00+1ю214887 0.0 102618
09:00+8св223858 0.0 1026412
12:00+12ссв23386 0.0 1024980
15:00+15ссв22395 0.0 10221266
18:00+14св22495 0.0 1022794
21:00+7ююв22785 0.0 102346
10 мая, пн
пн1000:00+5ю33771 0.0 102459
03:00+5ююв32761 0.0 102445
06:00+5ююв22710 0.0 102331
09:00+12всв23490 0.0 1021300
12:00+18св32370 0.0 1020950
15:00+20ссв22370 0.0 10181322
18:00+19св21441 0.0 1018856
21:00+10ююв22755 0.0 101941